Total_Precipitation_Accumulation
1.75 2.08 2.42 2.72 3.25 3.28 3.15 3.24 3.41 3.60 3.70 3.96 4.05 4.28 4.62 4.84 4.99 5.02 4.91 4.88 4.76 4.85 4.86 4.68 4.46 4.32 4.28 4.18 4.14 3.96 3.75 3.49 3.37 3.25 2.89 2.39 2.11 2.10 2.08 2.08 2.06 2.02 2.04
2.11 2.26 2.44 2.82 3.31 3.47 3.49 3.52 3.71 4.01 4.22 4.45 4.90 5.19 5.45 5.69 5.89 5.93 5.50 5.29 5.19 5.08 4.98 4.98 4.90 4.70 4.50 4.29 4.10 4.01 3.85 3.53 3.41 3.35 3.21 2.74 2.32 1.95 1.73 1.75 1.73 1.73 1.88
2.31 2.39 2.49 2.83 3.16 3.33 3.45 3.58 3.82 4.24 4.78 5.17 5.62 6.02 6.17 6.22 6.08 5.83 5.72 5.58 5.42 5.26 5.09 4.94 4.72 4.56 4.43 4.26 4.05 3.87 3.77 3.54 3.41 3.34 3.40 3.09 2.65 2.15 1.79 1.60 1.53 1.50 1.60
2.30 2.43 2.60 2.83 3.11 3.33 3.46 3.79 4.27 4.86 5.42 5.89 6.42 6.89 7.00 6.85 6.55 6.11 5.69 5.44 5.20 4.88 4.63 4.50 4.38 4.19 3.89 3.65 3.50 3.41 3.27 3.14 3.01 3.02 2.97 2.81 2.63 2.59 2.33 2.02 1.84 1.74 1.69
1.97 2.20 2.37 2.57 2.95 3.12 3.33 3.69 4.24 4.94 5.64 6.46 7.15 7.57 7.49 7.16 6.73 6.06 5.48 5.00 4.60 4.25 3.99 3.85 3.67 3.45 3.09 2.73 2.60 2.68 2.77 2.77 2.70 2.68 2.71 2.70 2.54 2.48 2.41 2.26 2.08 1.96 1.82
1.70 1.80 1.89 2.13 2.46 2.76 3.05 3.46 4.07 4.78 5.44 6.10 6.63 6.86 6.77 6.56 6.04 5.34 4.72 4.32 3.99 3.64 3.29 2.98 2.70 2.47 2.31 2.11 2.05 2.08 2.16 2.35 2.46 2.59 2.62 2.60 2.50 2.42 2.42 2.31 2.24 2.17 2.01
1.60 1.58 1.60 1.81 2.14 2.35 2.72 3.15 3.58 4.22 4.65 5.00 5.42 5.60 5.62 5.39 5.09 4.61 4.15 3.71 3.23 2.88 2.59 2.32 2.18 2.04 1.93 1.86 1.83 1.80 1.77 1.86 2.02 2.15 2.28 2.36 2.35 2.34 2.40 2.48 2.46 2.28 2.11
1.48 1.52 1.60 1.76 2.02 2.15 2.35 2.57 2.87 3.23 3.42 3.48 3.72 3.96 3.98 3.93 3.79 3.51 3.20 2.90 2.53 2.16 1.92 1.72 1.60 1.58 1.61 1.54 1.56 1.58 1.58 1.59 1.66 1.74 1.92 2.05 2.09 2.11 2.13 2.17 2.26 2.31 2.18
1.36 1.46 1.53 1.53 1.59 1.68 1.78 1.88 2.04 2.20 2.31 2.39 2.44 2.60 2.63 2.62 2.53 2.36 2.13 1.93 1.77 1.55 1.39 1.29 1.28 1.27 1.28 1.32 1.30 1.28 1.32 1.41 1.46 1.47 1.55 1.63 1.68 1.74 1.82 1.90 1.97 2.10 2.14
1.25 1.34 1.40 1.38 1.38 1.38 1.46 1.53 1.58 1.65 1.71 1.78 1.72 1.73 1.78 1.79 1.74 1.61 1.54 1.44 1.31 1.21 1.19 1.13 1.06 1.00 0.99 1.00 1.04 1.06 1.08 1.13 1.22 1.25 1.27 1.33 1.35 1.43 1.52 1.66 1.75 1.78 1.85
1.14 1.22 1.22 1.20 1.18 1.18 1.22 1.30 1.32 1.32 1.33 1.32 1.29 1.26 1.23 1.24 1.29 1.30 1.25 1.16 1.05 0.94 0.91 0.82 0.77 0.74 0.77 0.82 0.87 0.90 0.94 0.98 1.03 1.10 1.14 1.16 1.14 1.20 1.26 1.28 1.34 1.47 1.57
1.25 1.25 1.17 1.11 1.05 1.05 1.06 1.10 1.11 1.12 1.16 1.08 0.99 0.99 0.96 0.95 0.99 1.03 0.95 0.90 0.87 0.78 0.71 0.62 0.60 0.59 0.62 0.65 0.68 0.72 0.76 0.86 0.89 0.91 0.95 0.97 0.97 1.01 1.03 1.06 1.08 1.18 1.30
1.61 1.47 1.28 1.18 1.14 1.09 1.02 0.94 0.97 0.97 0.97 0.94 0.88 0.86 0.84 0.84 0.86 0.87 0.84 0.78 0.76 0.72 0.64 0.56 0.54 0.53 0.51 0.52 0.53 0.56 0.58 0.66 0.74 0.78 0.82 0.84 0.85 0.84 0.80 0.85 0.92 1.00 1.08
1.79 1.59 1.36 1.27 1.23 1.14 1.04 0.98 0.98 0.92 0.86 0.85 0.80 0.78 0.76 0.75 0.75 0.77 0.80 0.74 0.65 0.58 0.56 0.53 0.50 0.48 0.45 0.46 0.45 0.42 0.45 0.51 0.56 0.59 0.64 0.68 0.72 0.74 0.75 0.76 0.87 0.94 1.07
1.72 1.62 1.52 1.42 1.35 1.26 1.18 1.07 1.00 0.91 0.86 0.83 0.79 0.75 0.70 0.66 0.64 0.66 0.67 0.66 0.61 0.52 0.49 0.47 0.46 0.41 0.35 0.31 0.31 0.34 0.40 0.48 0.49 0.52 0.51 0.52 0.57 0.67 0.68 0.68 0.76 0.87 1.01
1.82 1.73 1.64 1.54 1.50 1.38 1.32 1.23 1.12 1.06 0.97 0.89 0.88 0.81 0.75 0.67 0.65 0.63 0.63 0.61 0.55 0.50 0.47 0.45 0.42 0.37 0.29 0.27 0.26 0.28 0.37 0.47 0.50 0.49 0.47 0.44 0.42 0.47 0.54 0.56 0.62 0.75 0.86
1.91 1.79 1.78 1.76 1.69 1.63 1.53 1.37 1.22 1.14 0.96 0.84 0.81 0.79 0.74 0.69 0.65 0.57 0.53 0.55 0.57 0.53 0.48 0.45 0.44 0.45 0.39 0.25 0.21 0.23 0.33 0.48 0.48 0.48 0.52 0.46 0.42 0.48 0.54 0.55 0.52 0.57 0.61
2.08 1.96 1.85 1.81 1.72 1.64 1.51 1.33 1.14 0.98 0.82 0.74 0.70 0.65 0.62 0.63 0.64 0.57 0.54 0.56 0.57 0.55 0.51 0.48 0.49 0.53 0.42 0.27 0.19 0.22 0.32 0.43 0.39 0.42 0.49 0.56 0.57 0.49 0.49 0.52 0.56 0.60 0.62
2.07 1.97 1.83 1.75 1.63 1.45 1.29 1.17 0.96 0.84 0.76 0.70 0.67 0.59 0.53 0.58 0.61 0.58 0.57 0.61 0.59 0.58 0.56 0.54 0.57 0.59 0.47 0.31 0.24 0.27 0.35 0.41 0.42 0.44 0.42 0.43 0.48 0.45 0.49 0.55 0.69 0.72 0.76
1.82 1.77 1.59 1.46 1.39 1.21 1.05 0.99 0.87 0.78 0.74 0.68 0.63 0.57 0.55 0.58 0.61 0.64 0.63 0.58 0.57 0.54 0.49 0.53 0.60 0.59 0.51 0.35 0.28 0.30 0.34 0.42 0.51 0.55 0.53 0.48 0.45 0.43 0.46 0.57 0.73 0.82 0.82
1.51 1.50 1.40 1.32 1.18 1.00 0.97 1.01 0.96 0.82 0.66 0.57 0.56 0.59 0.60 0.56 0.54 0.57 0.59 0.57 0.50 0.52 0.51 0.51 0.55 0.57 0.44 0.33 0.29 0.34 0.39 0.43 0.47 0.54 0.60 0.56 0.48 0.44 0.45 0.51 0.65 0.77 0.78
1.19 1.26 1.29 1.21 1.09 0.98 0.96 0.96 0.92 0.74 0.63 0.62 0.62 0.59 0.55 0.45 0.43 0.53 0.56 0.52 0.50 0.53 0.55 0.57 0.59 0.55 0.42 0.31 0.27 0.29 0.33 0.34 0.42 0.55 0.55 0.53 0.49 0.45 0.48 0.51 0.63 0.73 0.85
0.99 1.03 1.07 1.03 1.00 0.94 0.93 0.92 0.80 0.64 0.60 0.65 0.61 0.55 0.48 0.42 0.42 0.48 0.50 0.48 0.47 0.45 0.44 0.46 0.51 0.47 0.39 0.34 0.27 0.28 0.29 0.30 0.36 0.47 0.49 0.48 0.47 0.50 0.61 0.64 0.70 0.82 1.02
0.82 0.87 0.95 0.94 0.90 0.83 0.80 0.81 0.70 0.65 0.67 0.67 0.58 0.50 0.44 0.38 0.36 0.38 0.36 0.37 0.37 0.38 0.37 0.37 0.39 0.37 0.33 0.27 0.23 0.25 0.27 0.28 0.31 0.39 0.49 0.58 0.63 0.70 0.83 0.92 0.99 1.02 1.04
0.73 0.77 0.87 0.87 0.77 0.69 0.65 0.61 0.63 0.68 0.70 0.65 0.53 0.45 0.38 0.32 0.31 0.27 0.22 0.21 0.23 0.23 0.26 0.24 0.22 0.23 0.23 0.17 0.18 0.21 0.24 0.26 0.28 0.34 0.49 0.70 0.82 0.90 0.94 0.97 1.02 1.01 0.93
0.66 0.72 0.71 0.68 0.61 0.56 0.55 0.50 0.53 0.58 0.56 0.50 0.43 0.35 0.29 0.28 0.23 0.22 0.20 0.15 0.13 0.14 0.16 0.17 0.16 0.13 0.14 0.14 0.14 0.16 0.18 0.21 0.26 0.33 0.55 0.73 0.81 0.86 0.89 0.91 0.89 0.84 0.80